Home > Weather > Altstätten > Past weeks

Flag for Switzerland Weather for the Past 2 Weeks in Altstätten, St. Gallen, Switzerland

Now
45 °F

Clear.


Feels Like: 43 °F
Forecast: 40 / 46 °F
Wind: 3 mph from North

Location: Saint Gallen-Altenrhein

Current Time: Apr 30, 2016 at 2:37:12 AM

Latest Report: Apr 30, 2016 at 1:50 AM


Visibility: 10 mi

Pressure: 30.01 "Hg

Humidity: 81%

Dew Point: 39 °F

Location of AltstättenLocation

Historic Weather in Altstätten — Graph

°F

Altstätten Temperature Yesterday

Maximum temperature yesterday: 57 °F (at 3:20 PM)
Minimum temperature yesterday: 32 °F (at 4:20 AM)
Average temperature yesterday: 46 °F

High & Low Weather Summary for the Past Weeks

 TemperatureHumidityPressure
High66 °F (Apr 22, 3:50 PM)100% (Apr 16, 3:20 AM)30.33 "Hg (Apr 16, 3:20 AM)
Low32 °F (Apr 28, 1:50 AM)37% (Apr 22, 6:20 PM)29.62 "Hg (Apr 16, 11:50 PM)
Average46 °F78%29.96 "Hg
* Reported Apr 15 1:20 AM — Apr 30 1:20 AM, Altstätten, Weather by CustomWeather, © 2016

Note: Actual official high and low records may vary slightly from our data, if they occured in-between our weather recording intervals... More about our weather records

Advertising

Altstätten Weather History for the Previous 24 Hours

Scroll right to see more
 ConditionsComfort  
Time TempWeatherWind HumidityBarometerVisibility
1:20 AM
Sat, Apr 30
41 °FClear.1 mph81%30.01 "Hg10 mi
12:50 AM41 °FQuite cool.5 mph81%30.01 "HgN/A
12:20 AM41 °FClear.6 mph87%30.01 "HgN/A
11:50 PM
Fri, Apr 29
43 °FPassing clouds.5 mph81%30.01 "HgN/A
11:20 PM45 °FClear.5 mph76%30.04 "Hg10 mi
10:50 PM46 °FPassing clouds.5 mph71%30.04 "HgN/A
10:20 PM50 °FClear.5 mph58%30.04 "Hg10 mi
9:50 PM50 °FPassing clouds.5 mph58%30.04 "HgN/A
9:20 PM52 °FSunny.5 mph54%30.01 "Hg10 mi
8:50 PM52 °FSunny.5 mph58%30.01 "Hg10 mi
8:20 PM54 °FSunny.2 mph54%30.01 "Hg10 mi
7:50 PM55 °FSunny.3 mph47%30.01 "Hg10 mi
7:20 PM55 °FSunny.6 mph51%30.01 "Hg10 mi
6:50 PM55 °FSunny.7 mph47%30.01 "Hg10 mi
6:20 PM57 °FPassing clouds.8 mph48%30.01 "HgN/A
5:50 PM57 °FSunny.8 mph55%30.01 "Hg10 mi
5:20 PM57 °FPassing clouds.8 mph48%30.01 "HgN/A
4:50 PM55 °FSunny.7 mph51%30.01 "Hg10 mi
4:20 PM57 °FSunny.8 mph44%30.04 "Hg10 mi
3:50 PM55 °FSunny.7 mph44%30.04 "Hg10 mi
3:20 PM57 °FPassing clouds.7 mph41%30.04 "HgN/A
2:50 PM55 °FPassing clouds.8 mph44%30.04 "HgN/A
2:20 PM55 °FPassing clouds.7 mph47%30.04 "HgN/A
1:50 PM54 °FPassing clouds.8 mph44%30.04 "HgN/A
1:20 PM54 °FPassing clouds.7 mph54%30.07 "HgN/A
12:50 PM50 °FPassing clouds.8 mph58%30.07 "HgN/A
12:20 PM50 °FPassing clouds.7 mph54%30.07 "HgN/A
11:50 AM48 °FPassing clouds.6 mph71%30.07 "HgN/A
11:20 AM46 °FPassing clouds.6 mph71%30.07 "HgN/A
10:50 AM48 °FPassing clouds.6 mph71%30.07 "HgN/A
10:20 AM46 °FPassing clouds.5 mph71%30.07 "HgN/A
9:50 AM45 °FSunny.2 mph76%30.07 "Hg10 mi
9:20 AM43 °FSunny.3 mph76%30.07 "Hg10 mi
8:50 AM43 °FSunny.2 mph81%30.07 "Hg10 mi
8:20 AM43 °FSunny.2 mph81%30.07 "Hg10 mi
7:20 AM36 °FSunny.1 mph93%30.07 "Hg10 mi
6:50 AM34 °FClear.2 mph93%30.07 "Hg10 mi
6:20 AM36 °FClear.2 mph87%30.04 "Hg10 mi
5:50 AM34 °FClear.2 mph87%30.04 "Hg10 mi
5:20 AM32 °FClear.2 mph93%30.04 "Hg10 mi
4:20 AM32 °FChilly.3 mph93%30.04 "HgN/A
3:50 AM34 °FPassing clouds.1 mph93%30.04 "HgN/A
3:20 AM36 °FPassing clouds.1 mph93%30.04 "HgN/A
2:50 AM37 °FChilly.2 mph87%30.04 "HgN/A
2:20 AM36 °FPassing clouds.3 mph93%30.04 "HgN/A
Weather by CustomWeather, © 2016

See weather overviewHow to use our weather pages